Location: Chewton
(40.8890°N, 80.3259°W)
Time: 15:11:53
(UTC+00:00)

Daily predictions for brighter satellites

Satellite Brightness Start Highest point End
(mag) Time Altitude Azimuth Time Altitude Azimuth Time Altitude Azimuth
STARLINK 1056 3.6 12:00:19 10° NW 12:03:40 53° NE 12:07:01 10° ESE
Okean O Rocket 2.1 22:17:17 10° S 22:21:35 65° WSW 22:25:55 10° NNW
BREEZE-M DEB (TANK) 3.2 22:14:41 10° W 22:21:38 50° NNW 22:24:45 10° ENE
Cosmos 1782 3.4 22:17:51 10° SSW 22:21:48 61° W 22:25:45 10° N
Cosmos 332 Rocket 3.9 22:17:17 10° NNW 22:22:10 86° WSW 22:26:58 10° SSE
COSMOS 2428 2.7 22:20:07 10° SSW 22:25:46 79° ESE 22:31:29 10° NNE
Cosmos 1302 Rocket 4.0 22:21:37 10° NNW 22:26:52 63° ENE 22:32:02 10° SSE
Cosmos 1315 Rocket 3.1 22:23:13 10° SSW 22:27:09 70° W 22:31:10 10° N
Cosmos 1862 Rocket 4.2 22:24:52 10° SSE 22:28:46 34° E 22:32:44 10° NNE
IRS-1C Rocket 4.1 22:25:45 10° SSE 22:30:56 63° ENE 22:36:10 10° N
Cosmos 2251 Rocket 4.0 22:26:09 10° S 22:31:07 41° ESE 22:36:04 10° NNE
Cosmos 1346 Rocket 3.0 22:27:19 10° NNW 22:31:18 80° W 22:35:18 10° S
Cosmos 1689 Rocket 4.4 22:29:47 10° NNW 22:32:21 25° WNW 22:34:52 10° SW
Meteor 1-5 Rocket 4.3 22:27:12 10° N 22:32:35 50° ENE 22:37:47 10° SSE
Okean-O 3.3 22:30:47 10° SE 22:34:42 32° ENE 22:38:38 10° N
Cosmos 1666 4.3 22:36:09 10° NE 22:38:17 15° ENE 22:40:25 10° ESE
ATLAS 2AS CENTAUR R/B 4.0 22:31:59 10° WSW 22:39:28 43° NW 22:47:01 10° NNE
Shenzhou-11 Module 1.8 22:38:05 10° W 22:40:48 62° N 22:42:58 14° ENE
NOSS 0 Rocket 4.1 22:36:22 10° S 22:42:23 55° ESE 22:48:28 10° NNE
STARLINK-46 3.5 22:41:39 10° WSW 22:44:12 39° NNW 22:46:26 12° NE
AQUARIUS 4.1 22:40:00 10° SSE 22:44:27 67° ENE 22:48:55 10° N
Exosat Rocket 3.6 22:38:51 10° S 22:44:27 63° ESE 22:49:23 10° NNE
Cosmos 1707 Rocket 4.1 22:40:18 10° SSW 22:44:42 64° W 22:49:10 10° N
Meteor 2-6 Rocket 4.5 22:47:49 10° SSW 22:53:10 68° W 22:58:35 10° N
Radarsat 4.5 22:48:26 10° SSE 22:53:37 79° ENE 22:58:50 10° N
Envisat 3.2 22:49:13 10° SE 22:54:04 47° ENE 22:58:56 10° N
ISS -2.6 22:51:18 10° NW 22:54:14 27° NNE 22:55:48 19° ENE
STARLINK-60 4.1 22:55:19 10° SSW 22:58:20 30° SE 22:59:56 20° E
RESURS DK-1 3.0 22:56:13 10° SW 23:00:16 55° WNW 23:04:20 10° NNE
Cosmos 2278 Rocket 2.2 22:56:45 10° NNW 23:02:21 58° ENE 23:07:54 10° SE
Cosmos 1812 2.7 23:00:22 10° S 23:04:13 85° W 23:08:07 10° N
Cosmos 1908 Rocket 4.1 23:02:07 10° N 23:06:13 36° ENE 23:10:13 10° SE
Cosmos 2360 Rocket 4.5 23:02:31 10° W 23:06:24 19° NW 23:10:19 10° N
COSMO-SKYMED 1 2.9 23:03:58 10° NNE 23:08:09 45° E 23:12:17 10° S
USA 215 4.5 23:06:11 10° NE 23:11:37 30° NNW 23:17:09 10° W
Cosmos 1992 Rocket 4.0 23:07:09 10° NNW 23:12:19 60° ENE 23:17:28 10° SSE
SL-16 R/B 3.1 23:09:12 10° SSE 23:13:53 27° ESE 23:15:45 23° ENE
CENTAUR R/B 4.5 23:06:31 10° NW 23:14:13 44° WSW 23:22:17 10° S
YAOGAN 1 3.3 23:10:59 10° SE 23:14:46 31° ENE 23:18:34 10° N
Atlas Centaur 2 4.4 23:10:29 10° WSW 23:17:15 33° SSW 23:24:36 10° SE
Cosmos 2333 Rocket 3.5 23:12:12 10° SW 23:17:33 39° WNW 23:22:57 10° N
Meteor 1-11 Rocket 4.1 23:17:26 10° NNW 23:23:25 73° W 23:29:19 10° S
Nadezhda 4 Rocket 4.2 23:18:23 10° SSW 23:24:42 75° W 23:31:04 10° N
Meteor 1-27 Rocket 4.1 23:20:33 10° SSW 23:26:12 69° W 23:32:02 10° N
Cosmos 2237 Rocket 2.2 23:20:33 10° SSW 23:26:15 86° WNW 23:31:23 13° NNE
BREEZE-M DEB (TANK) 2.2 23:23:08 10° NW 23:27:18 43° NNE 23:27:29 42° NNE
Cosmos 1500 4.2 23:25:42 10° NNW 23:29:19 46° W 23:32:54 10° SSW
Cosmos 1536 2.8 23:25:21 10° N 23:29:24 83° W 23:33:22 10° S
Cosmos 1900 4.3 23:25:17 10° NNW 23:30:05 54° NE 23:33:19 20° SE
Okean 1-7 3.2 23:27:18 10° SSE 23:31:27 49° E 23:33:00 33° NE
FALCON 9 DEB 3.4 23:28:42 10° SSW 23:32:04 49° SE 23:32:21 47° ESE
SKYMED 3 4.5 23:28:13 12° NNE 23:32:20 85° E 23:36:40 10° SSW
CZ-4 R/B 1.2 23:28:33 10° SSE 23:32:27 60° ENE 23:36:17 10° N
Cosmos 1733 Rocket 4.4 23:28:32 10° NNW 23:32:39 41° W 23:36:46 10° SSW
YAOGAN 6 2.5 23:34:55 10° S 23:38:25 84° WSW 23:41:59 10° NNW
Lacrosse 5 rocket 2.8 23:38:56 10° W 23:42:46 31° NW 23:44:24 23° N
Cosmos 2219 Rocket 4.1 23:38:57 10° WSW 23:43:34 26° NW 23:48:13 10° N
Cosmos 2026 Rocket 3.8 23:41:20 10° S 23:47:22 74° E 23:53:25 10° N
STARLINK-52 3.7 23:46:54 10° SW 23:49:46 49° S 23:49:46 49° S
Meteor 1-18 Rocket 4.3 23:44:57 10° S 23:50:31 53° E 23:52:18 39° NE
Okean 1 4.3 23:46:43 10° S 23:49:09 33° SSE 23:49:09 33° SSE
BREEZE-M R/B 4.4 23:49:29 10° NW 23:52:37 21° NNW 23:52:37 21° NNW
SL-4 R/B 3.7 23:50:18 10° WNW 23:53:18 21° NNW 23:53:28 21° N
Cosmos 1190 Rocket 4.2 23:49:02 10° S 23:53:52 48° ESE 23:53:52 48° ESE
